Home   Weather   Little Rock   Past weeks

Flag for USA Past Weather in Little Rock, Arkansas, USA — Yesterday and Last 2 Weeks

Now
72 °F

Passing clouds.


Feels Like: 77 °F
Forecast: 58 / 88 °F
Wind: 7 mph from West

Location: Adams Field

Current Time: Sep 28, 2016 at 10:33:45 AM

Latest Report: Sep 28, 2016 at 9:53 AM


Visibility: 10 mi

Pressure: 29.97 "Hg

Humidity: 53%

Dew Point: 54 °F

Location of Little RockLocation

Past Weather in Little Rock — Graph

°F

Little Rock Temperature Yesterday

Maximum temperature yesterday: 82 °F (at 3:53 PM)
Minimum temperature yesterday: 59 °F (at 5:53 AM)
Average temperature yesterday: 69 °F

High & Low Weather Summary for the Past Weeks

 TemperatureHumidityPressure
High95 °F (Sep 14, 2:53 PM)93% (Sep 19, 6:53 AM)30.19 "Hg (Sep 19, 6:53 AM)
Low57 °F (Sep 28, 4:53 AM)24% (Sep 27, 3:53 PM)29.89 "Hg (Sep 16, 5:53 PM)
Average79 °F67%30.04 "Hg
* Reported Sep 13 8:53 AM — Sep 28 8:53 AM, Little Rock, Weather by CustomWeather, © 2016

Note: Actual official high and low records may vary slightly from our data, if they occured in-between our weather recording intervals... More about our weather records

Advertising

Little Rock Weather History for the Previous 24 Hours

Scroll right to see more
 ConditionsComfort  
Time TempWeatherWind HumidityBarometerVisibility
8:53 AM
Wed, Sep 28
65 °FSunny.5 mph70%29.97 "Hg10 mi
7:53 AM59 °FSunny.5 mph81%29.96 "Hg10 mi
6:53 AM57 °FClear.6 mph83%29.96 "Hg10 mi
5:53 AM57 °FClear.6 mph83%29.96 "Hg10 mi
4:53 AM57 °FClear.6 mph87%29.96 "Hg10 mi
3:53 AM58 °FClear.6 mph84%29.95 "Hg10 mi
2:53 AM59 °FClear.6 mph81%29.97 "Hg10 mi
1:53 AM59 °FClear.6 mph81%29.97 "Hg10 mi
12:53 AM61 °FClear.7 mph78%29.97 "Hg10 mi
11:53 PM
Tue, Sep 27
62 °FClear.No wind75%29.98 "Hg10 mi
10:53 PM62 °FClear.5 mph75%29.98 "Hg10 mi
9:53 PM62 °FClear.5 mph73%29.99 "Hg10 mi
8:53 PM65 °FPassing clouds.3 mph66%29.98 "Hg10 mi
7:53 PM67 °FPassing clouds.No wind57%29.97 "Hg10 mi
6:53 PM75 °FPassing clouds.3 mph33%29.96 "Hg10 mi
5:53 PM79 °FPassing clouds.7 mph28%29.97 "Hg10 mi
4:53 PM81 °FPassing clouds.3 mph25%29.98 "Hg10 mi
3:53 PM82 °FPassing clouds.3 mph24%29.99 "Hg10 mi
2:53 PM81 °FPassing clouds.7 mph25%30.01 "Hg10 mi
1:53 PM80 °FScattered clouds.5 mph26%30.03 "Hg10 mi
12:53 PM79 °FPassing clouds.10 mph28%30.06 "Hg10 mi
11:53 AM77 °FPassing clouds.3 mph31%30.08 "Hg10 mi
10:53 AM74 °FPassing clouds.6 mph40%30.10 "Hg10 mi
Weather by CustomWeather, © 2016

See weather overviewHow to use our weather pages